Location: Unspecified
(0.0000°N, 0.0000°E)
Time: 16:00:30
(UTC+00:00)

S-56A Canister/Altair - All Passes

Search period start: 12 April 2021 00:00
Search period end: 22 April 2021 00:00
Orbit: 632 x 2500 km, 38.9° (Epoch: 11 April)

Date Brightness Start Highest point End Pass type
(mag) Time Alt. Az. Time Alt. Az. Time Alt. Az.
12 Apr - 00:11:15 10° WNW 00:15:08 14° NW 00:18:24 10° NNW night (unlit)
12 Apr - 08:37:31 10° NNW 08:43:39 34° NE 08:52:24 10° ESE daylight
12 Apr - 10:40:09 10° WNW 10:48:18 57° SW 11:00:33 10° SE daylight
12 Apr - 12:48:42 10° WSW 12:56:03 19° SSW 13:04:48 10° SSE daylight
12 Apr - 19:21:48 10° SSW 19:31:39 24° SSE 19:39:20 10° ESE visible
12 Apr - 21:26:50 10° SW 21:38:29 78° SE 21:45:55 10° NE visible
12 Apr - 23:36:31 10° W 23:42:26 20° NW 23:47:03 10° N night (unlit)
13 Apr - 08:05:35 10° N 08:10:55 26° NE 08:18:12 10° E daylight
13 Apr - 10:07:31 10° WNW 10:15:10 65° SW 10:26:55 10° SE daylight
13 Apr - 12:15:05 10° WSW 12:22:25 21° SSW 12:31:29 10° SSE daylight
13 Apr - 18:48:26 10° SSW 18:58:05 22° SSE 19:05:55 10° ESE visible
13 Apr - 20:53:09 10° SW 21:05:24 68° SE 21:13:24 10° ENE visible
13 Apr - 23:02:06 10° W 23:09:44 27° NW 23:15:19 10° N visible
14 Apr - 07:33:52 10° N 07:38:15 20° NE 07:43:50 10° E daylight
14 Apr - 09:34:59 10° NW 09:42:08 75° SW 09:53:17 10° SE daylight
14 Apr - 11:41:41 10° WSW 11:48:54 22° SSW 11:58:07 10° SSE daylight
14 Apr - 18:15:06 10° SSW 18:24:26 20° SSE 18:32:16 10° ESE visible
14 Apr - 20:19:30 10° SW 20:32:13 60° SE 20:40:45 10° ENE visible
14 Apr - 22:27:50 10° WSW 22:36:58 34° NW 22:43:22 10° NNE visible
15 Apr - 07:02:32 10° NNE 07:05:35 14° NE 07:09:09 10° ENE daylight
15 Apr - 09:02:32 10° NW 09:09:12 87° SW 09:19:38 10° SE daylight
15 Apr - 11:08:27 10° W 11:15:28 24° SSW 11:24:44 10° SSE daylight
15 Apr - 17:41:52 10° S 17:50:41 18° SSE 17:58:24 10° ESE daylight
15 Apr - 19:45:52 10° SW 19:58:57 53° SE 20:07:59 10° ENE visible
15 Apr - 21:53:39 10° WSW 22:04:09 43° NW 22:11:17 10° NNE visible
16 Apr - 08:30:11 10° NW 08:36:23 78° NE 08:46:00 10° SE daylight
16 Apr - 10:35:22 10° W 10:42:09 27° SSW 10:51:21 10° SSE daylight
16 Apr - 17:08:45 10° S 17:16:52 16° SSE 17:24:13 10° ESE daylight
16 Apr - 19:12:17 10° SSW 19:25:33 47° SE 19:35:06 10° ENE visible
16 Apr - 21:19:33 10° WSW 21:31:14 53° NW 21:39:03 10° NNE visible
17 Apr - 07:57:55 10° NW 08:03:40 63° NE 08:12:23 10° ESE daylight
17 Apr - 10:02:26 10° W 10:08:55 29° SSW 10:17:59 10° SSE daylight
17 Apr - 16:35:48 10° S 16:42:58 15° SSE 16:49:41 10° SE daylight
17 Apr - 18:38:45 10° SSW 18:52:05 43° SE 19:02:04 10° ENE visible
17 Apr - 20:45:31 10° WSW 20:58:14 63° NW 21:06:44 10° NE visible
17 Apr - 23:00:11 10° WNW 23:02:37 11° NW 23:04:50 10° NNW visible
18 Apr - 07:25:44 10° NNW 07:31:01 49° NE 07:38:44 10° ESE daylight
18 Apr - 09:29:36 10° W 09:35:48 32° SSW 09:44:38 10° SSE daylight
18 Apr - 16:03:07 10° S 16:09:00 13° SSE 16:14:40 10° SE daylight
18 Apr - 18:05:17 10° SSW 18:18:30 38° SE 18:28:54 10° E visible
18 Apr - 20:11:33 10° SW 20:25:08 74° NW 20:34:18 10° NE visible
18 Apr - 22:24:04 10° WNW 22:29:41 16° NW 22:34:21 10° N visible
19 Apr - 06:53:38 10° NNW 06:58:27 37° NE 07:05:06 10° ESE daylight
19 Apr - 08:56:52 10° W 09:02:46 36° SW 09:11:19 10° SSE daylight
19 Apr - 11:09:04 10° SSW 11:10:18 10° SSW 11:11:34 10° SSW daylight
19 Apr - 15:31:01 10° S 15:34:58 11° SSE 15:38:54 10° SE daylight
19 Apr - 17:31:54 10° SSW 17:44:52 34° SE 17:55:32 10° E daylight
19 Apr - 19:37:40 10° SW 19:51:55 84° NW 20:01:45 10° NE visible
19 Apr - 21:48:54 10° W 21:56:45 21° NW 22:02:52 10° N visible
20 Apr - 06:21:38 10° NNW 06:25:54 28° NE 06:31:26 10° ESE daylight
20 Apr - 08:24:14 10° WNW 08:29:50 42° SW 08:38:02 10° SSE daylight
20 Apr - 10:34:39 10° SW 10:36:51 11° SSW 10:39:14 10° S daylight
20 Apr - 16:58:37 10° SSW 17:11:10 31° SE 17:21:59 10° E daylight
20 Apr - 19:03:52 10° SW 19:18:35 86° SE 19:29:05 10° NE visible
20 Apr - 21:14:06 10° W 21:23:45 27° NW 21:31:01 10° N visible
21 Apr - 05:49:48 10° N 05:53:23 20° NE 05:57:40 10° E daylight
21 Apr - 07:51:40 10° WNW 07:57:00 48° SW 08:04:48 10° SE daylight
21 Apr - 10:00:47 10° SW 10:03:31 12° SSW 10:06:32 10° S daylight
21 Apr - 16:25:27 10° SSW 16:37:25 28° SE 16:48:12 10° E daylight
21 Apr - 18:30:10 10° SW 18:45:09 77° SE 18:56:17 10° NE visible
21 Apr - 20:39:29 10° WSW 20:50:41 33° NW 20:58:57 10° NNE visible
